Location: Mountain View
(37.3861°N, 122.0839°W)
Time: 20:46:03
(UTC-07:00)

Envisat - Pass Details

Date: 17 May 2026
Orbit: 761 x 763 km, 98.4° (Epoch: 9 June)

Event Time Altitude Azimuth Distance (km) Brightness Sun altitude
Rises 02:21:17 0° 36° (NE) 3,227 7.3 -30.4°
Reaches altitude 10° 02:25:00 10° 65° (ENE) 2,295 6.0 -30.2°
Maximum altitude 02:27:13 13° 91° (E) 2,101 5.5 -30.0°
Enters shadow 02:28:26 12° 106° (ESE) 2,159 5.4 -29.9°
